Regional Weather Roundup
Issued by NWS

Home | Current Version | Previous Version | Graphics & Text | Print | Product List | Glossary On
Versions: 1 2 3 4 5 6 7 8 9 10 11 12 13 14 15 16 17 18 19 20 21 22 23 24 25 26 27 28 29 30 31 32 33 34 35 36 37 38 39 40 41 42 43 44 45 46 47 48 49 50
689
ASUS43 KMPX 230101
RWRMN
WEATHER ROUNDUP FOR MINNESOTA
NATIONAL WEATHER SERVICE TWIN CITIES/CHANHASSEN MN
700 PM CST THU FEB 22 2018


NOTE: "FAIR" INDICATES FEW OR NO CLOUDS BELOW 12,000 FEET WITH NO
SIGNIFICANT WEATHER AND/OR OBSTRUCTIONS TO VISIBILITY. N/A MEANS
CURRENT SKY AND/OR WEATHER CONDITIONS ARE NOT AVAILABLE.

MNZ060>063-068>070-230200-
   Twin Cities Metro

CITY           SKY/WX    TMP DP  RH WIND       PRES   REMARKS
TWIN CITIES    LGT SNOW  28  20  71 E13       30.32F WCI  17
ST PAUL        LGT SNOW  28  19  69 E13       30.34F WCI  17
CRYSTAL        FLURRIES  27  17  66 E7        30.31F WCI  19
BLAINE         LGT SNOW  28  19  69 E12G18    30.32F WCI  18
LAKEVILLE      LGT SNOW  25  21  86 E13G18    30.31S WCI  13
EDEN PRAIRIE   LGT SNOW  27  18  69 E14       30.29F WCI  16
SOUTH ST PAUL  MOCLDY    28  19  69 E7        30.32F WCI  21
LAKE ELMO      FLURRIES  28  19  69 E13G22    30.34F WCI  18
$$
MNZ001>005-007-008-013>017-022>024-027-028-230200-
   Northwest Minnesota

CITY           SKY/WX    TMP DP  RH WIND       PRES   REMARKS
BEMIDJI        FAIR      22   8  54 SE7       30.30F WCI  13
HALLOCK        FAIR       7   3  85 S8        30.30S WCI  -6
ROSEAU         FAIR      12   7  79 S7        30.30F WCI   2
WARROAD        FAIR      16   9  73 CALM      30.31F
THIEF RVR FALL CLOUDY    17   9  70 SE6       30.30F WCI   9
CROOKSTON      FAIR      16  10  79 SE3       30.31S
FOSSTON        FAIR      16   5  62 CALM      30.29F
DETROIT LAKES  MOCLDY    23  10  58 SE9       30.29F WCI  13
MOORHEAD       FAIR      21  14  73 SE3       30.30F
PARK RAPIDS    CLOUDY    23   6  48 E7        30.30F WCI  15
MAHNOMEN       CLOUDY    23   8  52 SE7       30.29S WCI  14
$$
MNZ006-009>011-018-025>026-230200-
   North Central Minnesota

CITY           SKY/WX    TMP DP  RH WIND       PRES   REMARKS
BAUDETTE       FAIR      19   2  47 SE7       30.30F WCI  10
FLAG ISLAND    FAIR      10   3  72 SE7       30.30S WCI   0
INTL FALLS     FAIR      25   4  40 S3        30.33F
WASKISH        FAIR      18   5  57 CALM      30.32F
BIG FORK       FAIR      25   3  39 SE5       30.34F WCI  19
LONGVILLE      CLOUDY    21   9  58 CALM      30.34F
GRAND RAPIDS   CLOUDY    23  11  60 SE3       30.37F
CRANE LAKE     CLOUDY    27   3  36 S3        30.39S
ORR            MOCLDY    25   0  33 S5        30.33F WCI  19
COOK             N/A     27   7  43 SE7       30.37F WCI  19
WALKER         CLOUDY    22   4  45 SE5       30.32F WCI  16
$$
MNZ012-019>021-037-230200-
   Northeast Minnesota

CITY           SKY/WX    TMP DP  RH WIND       PRES   REMARKS
DULUTH         CLOUDY    20  12  71 E7        30.38F WCI  11
ELY            CLOUDY    25   7  46 S6        30.38F WCI  18
HIBBING        CLOUDY    22   8  55 SE5       30.37F WCI  16
DULUTH HARBOR  CLOUDY    25  18  74 E10       30.45F WCI  15
TWO HARBORS    MOCLDY    25  12  58 NE5       30.40F WCI  19
GRAND MARAIS     N/A     22  14  71 CALM      30.49F
G MARAIS ARPRT CLOUDY    16  10  79 CALM      30.40F
$$
MNZ029>031-032-039>041-046>048-054>057-064-230200-
   West Central Minnesota

CITY           SKY/WX    TMP DP  RH WIND       PRES   REMARKS
FERGUS FALLS   LGT SNOW  21  18  86 E7        30.28F WCI  13
WHEATON        LGT SNOW  21  19  93 E10       30.29S WCI  10
MORRIS         SNOW      21  21 100 E15       30.23F VSB 1/2 WCI   8
ALEXANDRIA     HVY SNOW  20  18  92 E13       30.26F VSB 1/4 WCI   7
ELBOW LAKE     LGT SNOW  21  19  93 E12       30.26F WCI   9
WADENA         LGT SNOW  19  16  86 E7        30.30F WCI  10
GLENWOOD       LGT SNOW  21  19  93 NE15      30.24F WCI   8
APPLETON       LGT SNOW  25  21  86 E8        30.25S WCI  16
BENSON         MIX PCPN  23  19  86 SE12      30.26F WCI  12
ORTONVILLE     MIX PCPN  21  19  93 E8        30.24F VSB 1   WCI  12
MADISON        LGT SNOW  27  25  93 E14       30.24S VSB 3/4 WCI  15
WILLMAR        CLOUDY    21  19  93 E12       30.28F VSB 3/4 WCI   9
$$
MNZ033>034-036-042>043-049>051-058-059-230200-
   Central Minnesota

CITY           SKY/WX    TMP DP  RH WIND       PRES   REMARKS
ST CLOUD       FLURRIES  21  17  84 NE6       30.31F WCI  13
PAYNESVILLE    LGT SNOW  21  20  96 NE10      30.28F WCI  10
AITKIN         LGT SNOW  21  14  73 E6        30.36S WCI  14
PINE RIVER     LGT SNOW  19  12  73 SE7       30.36F WCI  10
BRAINERD       CLOUDY    21  14  74 E3        30.34F
STAPLES        LGT SNOW  19  16  86 E3        30.30F
LONG PRAIRIE   HVY SNOW  19  18  93 N12       30.28F VSB 1/4 WCI   7
LITTLE FALLS   SNOW      21  16  79 NE5       30.33F VSB 1/2 WCI  15
LITCHFIELD     LGT SNOW  25  21  86 E13       30.28F WCI  13
BUFFALO        LGT SNOW  25  18  76 NE12      30.31F WCI  14
MAPLE LAKE     LGT SNOW  25  20  83 E13       30.31F WCI  13
HUTCHINSON     LGT SNOW  26  24  92 NE12G17   30.28S VSB 1   WCI  15
$$
MNZ037-044-045-052-053-230200-
   East Central Minnesota

CITY           SKY/WX    TMP DP  RH WIND       PRES   REMARKS
PRINCETON      FLURRIES  25  18  74 NE5       30.33F WCI  19
CAMBRIDGE      LGT SNOW  28  18  64 E6        30.34F WCI  22
RUSH CITY      LGT SNOW  26  16  64 E5        30.37F WCI  20
MOOSE LAKE     FLURRIES  27  12  54 E3        30.37F
HINCKLEY       FLURRIES  28  16  59 E9        30.38F WCI  20
CLOQUET        CLOUDY    19  10  68 E3        30.38F
MCGREGOR       CLOUDY    25  12  58 E3        30.36F
$$
MNZ071>073-080-081-089-090-097-098-230200-
   Southwest Minnesota

CITY           SKY/WX    TMP DP  RH WIND       PRES   REMARKS
MONTEVIDEO     LGT SNOW  23  21  93 SE14      30.26R VSB 1   WCI  11
GRANITE FALLS  SNOW      25  23  93 NE12      30.27S VSB 1/2 WCI  14
CANBY          LGT SNOW  25  24  95 SE13      30.24S VSB 3/4 WCI  14
MARSHALL       LGT SNOW  23  21  92 E10       30.23F VSB 1   WCI  12
REDWOOD FALLS  LGT SNOW  24  23  96 E10       30.25S VSB 1   WCI  14
OLIVIA         LGT SNOW  23  21  93 E8        30.25F VSB 3/4 WCI  14
PIPESTONE      LGT SNOW  21  19  93 E8        30.16F VSB 1   WCI  12
WORTHINGTON    LGT SNOW  25  23  92 SE10      30.18S FOG     WCI  15
JACKSON        MIX PCPN  27  25  93 SE10      30.20R WCI  17
TRACY          LGT SNOW  24  24  98 NE7       30.21F WCI  16
SLAYTON        LGT SNOW  22  21  95 NE7       30.19F WCI  14
$$
MNZ065>067-074>077-082>085-091>093-230200-
   South Central Minnesota

CITY           SKY/WX    TMP DP  RH WIND       PRES   REMARKS
NEW ULM        LGT SNOW  25  23  93 E10       30.24F WCI  15
ST JAMES       LGT SNOW  27  27 100 E15       30.22F WCI  15
FAIRMONT       MIX PCPN  27  25  92 E13       30.21F WCI  16
GLENCOE        LGT SNOW  26  24  91 E13       30.28R WCI  15
FARIBAULT      LGT SNOW  27  25  93 E9        30.29S VSB 1   WCI  17
OWATONNA       LGT SNOW  27  25  93 E12       30.26F WCI  16
WASECA         LGT SNOW  27  23  86 E13       30.27F WCI  16
ALBERT LEA     LGT SNOW  27  25  93 E13       30.25F WCI  16
$$
MNZ078>079-086>088-094>096-230200-
   Southeast Minnesota

CITY           SKY/WX    TMP DP  RH WIND       PRES   REMARKS
ROCHESTER      LGT SNOW  25  24  96 E14       30.29F FOG     WCI  13
RED WING       LGT SNOW  28  19  69 E10       30.32F WCI  19
STANTON        LGT SNOW  28  23  82 E10       30.30S WCI  19
DODGE CENTER   LGT SNOW  25  23  93 E14       30.27F WCI  13
WINONA         LGT SNOW  30  27  86 SE9       30.35F VSB 1   WCI  22
AUSTIN         MIX PCPN  27  23  86 E14G20    30.27F WCI  15
PRESTON        CLOUDY    26  22  88 E10       30.30F FOG     WCI  15
$$
ABBREVIATIONS USED IN REMARKS
   TC - TEMPERATURES IN CELSIUS
  WCI - WIND CHILL INDEX
   HX - HEAT INDEX
  VSB - VISIBILITY
$$




USA.gov is the U.S. government's official web portal to all federal, state and local government web resources and services.